Regional Weather Roundup
Issued by NWS

Home | Current Version | Previous Version | Text Only | Print | Product List | Glossary On
Versions: 1 2 3 4 5 6 7 8 9 10 11 12 13 14 15 16 17 18 19 20 21 22 23 24 25 26 27 28 29
000
ASUS44 KLIX 312211
RWRLA
LOUISIANA WEATHER ROUNDUP
NATIONAL WEATHER SERVICE NEW ORLEANS LA
500 PM CDT WED AUG 31 2016

NOTE: "FAIR" INDICATES FEW OR NO CLOUDS BELOW 12,000 FEET WITH NO
      SIGNIFICANT WEATHER AND/OR OBSTRUCTIONS TO VISIBILITY.
      SKY/WX - SKY CONDITION AND SIGNIFICANT WEATHER.
      TMP - AIR TEMPERATURE.    DP   - DEWPOINT TEMPERATURE.
      RH  - RELATIVE HUMIDITY.  PRES - PRESSURE.
      HX  - HEAT INDEX.         WCI  - WIND CHILL INDEX.

*  THESE STATIONS ARE NOT NWS OR FAA STATIONS AND ARE NOT UNDER
   NWS QUALITY CONTROL.

LAZ040-048-061>063-065-066-069-312300-
SOUTHEAST LOUISIANA

CITY           SKY/WX    TMP DP  RH WIND       PRES   REMARKS
N.O. AUDUBON   NOT AVBL
N.O. INTL ARPT MOSUNNY   95  73  48 N9        29.80F HX 104
N.O. LAKEFRONT SUNNY     93  73  52 E6        29.81F HX 102
N.O. DOWNTOWN* MOCLDY    91  74  57 NE5       29.81F HX 100
RESERVE*       MOCLDY    94  74  51 NE8       29.80F HX 104
SLIDELL        SUNNY     93  72  50 N10       29.80F HX 101
BATON ROUGE    MOSUNNY   93  72  50 NE8       29.82F HX 101
BOOTHVILLE     NOT AVBL
BELLE CHASSE   MOSUNNY   91  74  57 E9        29.80F HX 100
BOGALUSA*      FAIR      93  68  44 N9        29.83F HX  97
GALLIANO*      CLEAR     90  74  58 E7        29.81F HX 100
NEW ROADS*     FAIR      89  76  65 MISG      29.84S HX 100
GONZALES*      FAIR      92  71  49 N6        29.80F HX  99
HAMMOND*       MOSUNNY   95  68  41 NE6       29.81F HX  99
HOUMA*         MOSUNNY   90  75  62 NE7       29.81F HX 100
PORT FOURCHON* CLEAR     88  73  62 NE14G21   29.80F HX  96

$$

LAZ041-044-053-054-312300-
SOUTHWEST LOUISIANA

CITY           SKY/WX    TMP DP  RH WIND       PRES   REMARKS
LAKE CHARLES   MOSUNNY   94  71  47 NE12      29.82F HX 101
LAFAYETTE      SUNNY     94  71  47 N12       29.82F HX 101
PATTERSON      NOT AVBL
SALT POINT       N/A     93  72  50 VRB3      29.79S HX 101
NEW IBERIA     MOSUNNY   94  71  47 N14       29.82F HX 101
CHENAULT AIRPK   N/A     97  73  46 NE9       29.84F HX 107

$$

LAZ027-028-312300-
CENTRAL LOUISIANA

CITY           SKY/WX    TMP DP  RH WIND       PRES   REMARKS
FORT POLK      SUNNY     91  72  53 NE8       29.85F HX  98
ALEXANDRIA INT SUNNY     94  70  45 NE6       29.84F HX 100
ALEXANDRIA     SUNNY     94  70  45 VRB7      29.85F HX 100

$$

LAZ001-002-312300-
NORTHWEST LOUISIANA

CITY           SKY/WX    TMP DP  RH WIND       PRES   REMARKS
SHREVEPORT     MOSUNNY   94  72  48 N8        29.88F HX 102
BARKSDALE AFB  SUNNY     92  70  48 NE8       29.89F HX  97
DTN SHREVEPORT MOSUNNY   94  72  48 NE6       29.88F HX 102

$$

LAZ014-016-312300-
NORTHEAST LOUISIANA

CITY           SKY/WX    TMP DP  RH WIND       PRES   REMARKS
MONROE         MOSUNNY   95  73  48 N10       29.88F HX 104
TALLULAH       SUNNY     95  71  45 NE9       29.86F HX 102

$$





USA.gov is the U.S. government's official web portal to all federal, state and local government web resources and services.